Showing default

IRIDIUM 125, 42964

Orbit data source: Space-Track

IRIDIUM 125, 42964 is a payload satellite owned by Iridium (US) in LEO that was launched on Mon, 09 Oct 2017 UTC via an FALCON 9 launch vehicle from the Air Force Western Test Range (AFWTR). Payload-class satellites include a variety of spacecraft equipped with specific instruments for various scientific and technological missions. These include communications satellites like Starlink; space stations such as the ISS; scientific satellites like the Hubble; Earth observation satellites from companies like Planet Labs, Umbra, and HawkEye 360; GPS; miniature CubeSats for education and research; and military/defense satellites.

Loading next visibility...
Identifier
42964, 2017-061K
Orbit
LEO
Country
Flag of USUS
Related business
Manufacturer
OATK SSG Gilbert
Mission
Operational Commercial Communications
Bus & Motor
ELITEBUS, Unknown motor
Mass
860 kg wet, 700 kg dry
Launch date (UTC)
2017-10-09 (8 years ago)
Launch vehicle
FALCON 9
Launch site
Air Force Western Test Range (AFWTR)
Object type
Payload
Rocket body
Debris
Shape & HBR
Trap Box + 2 Pan, 4.7 m
Radar Cross Section
14.423 m², Large (>1 m²)

Expand to show TLE details & history
Last TLE update: 13 hours ago

TLE from 13 hours ago
0 IRIDIUM 125
1 42964U 17061K   25258.70808703  .00000070  00000-0  17817-4 0  9990
2 42964  86.4004 140.1340 0002274  98.5727 261.5727 14.34218082415514
Epoch: 2025-09-15T16:59Z
TLE epoch observation values (Epoch: 2025-09-15T16:59:38.719Z)
Latitude
0.00003°
Longitude
-109.68619°
Altitude
780.956 km
Speed
7.463 km/s
True Right ascension
09h 20m 32s
True Declination
0° 00' 00"
Sunlit
Object was in daylight at epoch
Visualization orbit readout
Latitude
Unknown
Longitude
Unknown
Altitude
Unknown
Speed
Unknown
Apparent Right ascension
Unknown
Apparent Declination
Unknown
Sunlit
N/A
Visualization observer readout
Local Sidereal Time
23:10:39
Azimuth
Unknown
Elevation
Unknown
Doppler factor
Unknown
Orbital elements
Apogee altitude
776.257 km
Perigee altitude
773.004 km
Semi-major axis
7,152.767 km
Eccentricity
0.00023
Inclination
86.4004°
RAAN
140.134°
Arg. of periapsis
98.5727°
True anomaly
261.54692°
Mean anomaly
261.5727°
Eccentric anomaly
261.55981°
Mean motion
3.58783 °/min
Orbital period
100.34 mins
BSTAR
0.000017817
Loading maneuver chart data...
Computing Atmospheric mass density...
Loading historical data...
Loading historical data...
Loading historical data...
Loading historical data...
Loading historical data...
Loading historical data...
Loading historical data...

Documentation

Showing up to 5 results
|